TimeEDT,TemperatureF,Dew PointF,Humidity,Sea Level PressureIn,VisibilityMPH,Wind Direction,Wind SpeedMPH,Gust SpeedMPH,PrecipitationIn,Events,Conditions,WindDirDegrees,DateUTC
12:53 AM,75.0,64.9,71,30.15,10.0,Variable,3.5,-,N/A,,Clear,0,2013-04-17 04:53:00
1:53 AM,73.9,66.0,76,30.14,10.0,East,4.6,-,N/A,,Clear,100,2013-04-17 05:53:00
3:53 AM,72.0,66.0,81,30.12,10.0,Calm,Calm,-,N/A,,Clear,0,2013-04-17 07:53:00
4:53 AM,71.1,66.0,84,30.12,10.0,ENE,3.5,-,N/A,,Clear,60,2013-04-17 08:53:00
5:53 AM,70.0,64.9,84,30.12,10.0,Calm,Calm,-,N/A,,Partly Cloudy,0,2013-04-17 09:53:00
6:53 AM,69.1,64.9,87,30.14,10.0,Variable,5.8,-,N/A,,Partly Cloudy,0,2013-04-17 10:53:00
7:53 AM,69.1,64.9,87,30.15,10.0,NE,4.6,-,N/A,,Mostly Cloudy,50,2013-04-17 11:53:00
8:53 AM,73.0,66.0,79,30.16,10.0,ENE,4.6,-,N/A,,Mostly Cloudy,70,2013-04-17 12:53:00
9:53 AM,77.0,64.4,65,30.15,10.0,Variable,3.5,-,N/A,,Mostly Cloudy,0,2013-04-17 13:53:00
10:53 AM,79.0,63.0,58,30.14,10.0,ENE,8.1,-,N/A,,Mostly Cloudy,70,2013-04-17 14:53:00
11:53 AM,82.0,62.1,51,30.13,10.0,ENE,6.9,-,N/A,,Mostly Cloudy,70,2013-04-17 15:53:00
12:53 PM,84.0,60.1,44,30.11,10.0,NE,9.2,20.7,N/A,,Scattered Clouds,50,2013-04-17 16:53:00
1:53 PM,86.0,60.1,41,30.09,10.0,Variable,5.8,-,N/A,,Mostly Cloudy,0,2013-04-17 17:53:00
2:53 PM,86.0,57.9,38,30.07,10.0,Variable,4.6,-,N/A,,Mostly Cloudy,0,2013-04-17 18:53:00
3:53 PM,87.1,57.0,36,30.05,10.0,ENE,6.9,16.1,N/A,,Mostly Cloudy,60,2013-04-17 19:53:00
4:53 PM,88.0,57.9,36,30.04,10.0,Variable,6.9,-,N/A,,Mostly Cloudy,0,2013-04-17 20:53:00
5:53 PM,87.1,57.9,37,30.03,10.0,ENE,11.5,-,N/A,,Mostly Cloudy,60,2013-04-17 21:53:00
6:53 PM,84.9,57.9,40,30.04,10.0,ENE,8.1,-,N/A,,Mostly Cloudy,70,2013-04-17 22:53:00
7:53 PM,82.9,61.0,47,30.04,10.0,ENE,6.9,-,N/A,,Mostly Cloudy,70,2013-04-17 23:53:00
8:53 PM,80.1,63.0,56,30.06,10.0,Variable,6.9,18.4,N/A,,Scattered Clouds,0,2013-04-18 00:53:00
9:53 PM,79.0,64.0,60,30.08,10.0,ENE,8.1,-,N/A,,Scattered Clouds,70,2013-04-18 01:53:00
10:53 PM,77.0,63.0,62,30.08,10.0,East,6.9,-,N/A,,Clear,80,2013-04-18 02:53:00
11:53 PM,75.9,63.0,64,30.06,10.0,East,9.2,-,N/A,,Mostly Cloudy,90,2013-04-18 03:53:00